User: anonymous   Login
Location: Hains Lake
(37.8540°N, 99.8578°W)
Time: 17:25:34
(UTC+00:00)
Language:

Tiros 1 despin weight - Orbit

View from above orbital plane
View from above orbital plane
View from above satellite
View from above satellite

Ground track
Ground track

The orbit data is extracted from the following two-line orbital elements,

1   115U 60002D   21162.94504074  .00000007  00000-0  27935-4 0  9997
2   115  48.1675 345.3487 0034159  33.1917 327.1129 14.83776308266354
Epoch (UTC): 11 June 2021 22:40:51
Eccentricity: 0.0034159
inclination: 48.1675°
perigee height: 593 km
apogee height: 641 km
right ascension of ascending node: 345.3487°
argument of perigee: 33.1917°
revolutions per day: 14.83776308
mean anomaly at epoch: 327.1129°
orbit number at epoch: 26635

The dashed part of the orbit path shows where the satellite is in the earth's shadow,  

DLR